Wind_Speed
8 8 8 7 6 5 5 4 4 4 4 3 3 4 4 4 3 2 1 1 1 2 2 2 2 2 2 2 1 1 2 2 2 3 3 3 3 3 4 4 5 5 5
10 9 8 8 7 6 6 5 5 5 5 4 4 3 3 3 3 3 2 2 2 3 3 3 2 1 1 1 1 2 2 2 2 3 3 4 4 4 5 6 6 6 7
11 10 9 9 8 7 7 7 6 6 6 5 5 5 4 4 3 3 3 3 3 3 3 2 2 2 2 1 1 2 2 2 2 3 3 4 5 5 6 7 7 8 8
11 10 10 9 9 8 8 7 7 7 6 6 5 5 4 4 3 3 3 3 3 2 2 2 2 2 3 2 2 2 2 2 3 3 4 5 5 6 7 7 7 8 8
12 11 10 9 9 9 9 8 8 8 7 6 5 4 4 4 3 3 3 3 2 2 1 1 1 2 2 2 2 2 2 3 3 3 4 4 5 5 6 6 7 7 8
13 12 11 10 9 9 9 8 8 8 7 6 5 5 4 4 3 3 2 2 1 1 1 1 2 2 1 2 2 2 2 2 3 4 4 4 5 6 6 7 7 8 8
13 13 12 11 10 10 10 9 9 8 7 6 6 5 5 4 4 2 2 1 1 0 0 1 2 2 2 2 2 1 2 2 3 4 4 4 5 5 6 6 7 8 8
15 14 14 13 12 11 11 10 9 9 8 7 7 6 5 4 4 3 2 2 1 1 0 1 1 1 2 1 2 2 2 3 3 3 3 4 5 5 5 6 7 8 9
15 14 14 14 13 12 12 11 10 10 9 8 7 6 6 5 5 3 2 2 1 0 0 1 1 1 1 1 1 2 2 2 2 3 3 4 4 5 6 6 7 8 9
15 15 14 14 13 13 12 12 12 11 10 8 8 7 7 6 5 5 3 2 1 1 0 1 1 1 1 1 1 2 2 2 3 3 4 4 5 5 6 7 7 8 9
15 16 15 15 14 14 13 13 13 12 11 10 10 9 8 7 6 6 5 3 2 1 1 1 1 1 2 2 2 2 3 3 3 4 4 5 6 7 7 8 9 9 10
16 15 15 15 16 15 15 14 13 13 13 12 11 10 9 8 7 6 6 5 4 3 3 3 3 3 3 2 2 3 4 4 5 5 6 7 8 8 9 9 10 10 11
17 17 16 17 16 16 15 15 14 14 13 13 13 12 11 9 8 8 7 6 5 5 4 4 5 4 4 4 5 5 5 6 6 7 8 9 9 10 10 11 12 12 13
18 18 18 17 17 17 16 16 15 14 14 15 14 13 12 11 10 9 8 7 6 6 6 6 6 6 6 6 6 7 7 8 8 9 10 11 11 12 12 13 14 14 15
19 19 19 18 18 18 17 17 16 15 15 15 15 14 13 12 11 10 9 8 8 7 7 7 7 7 8 8 9 10 10 11 11 12 13 13 14 14 15 15 16 17 18
19 20 20 19 19 18 18 18 17 16 16 16 16 15 14 14 13 11 11 10 10 9 9 9 9 10 10 11 11 12 13 14 14 15 15 15 16 16 17 18 19 20 20
19 19 19 19 19 19 19 19 18 17 17 17 17 16 16 15 14 13 13 12 11 11 11 11 12 12 13 13 14 15 16 16 17 17 18 18 19 19 20 21 22 22 23
18 19 20 19 19 19 19 20 20 19 18 17 17 17 16 15 15 15 14 14 13 14 14 14 15 15 16 16 17 18 18 19 19 20 20 21 21 22 23 23 24 25 25
17 18 20 19 19 20 20 20 21 21 20 19 18 18 17 16 16 16 16 16 16 16 16 17 18 18 19 19 20 20 21 21 22 23 24 24 25 25 26 27 28 28 29
18 19 19 20 19 20 20 21 21 21 21 20 19 19 19 18 18 18 18 18 19 19 19 20 21 21 22 23 23 24 24 25 25 26 27 28 28 29 30 31 32 33 34
18 19 20 20 20 20 21 21 21 21 21 21 20 20 20 20 20 20 20 21 21 22 22 23 23 24 25 25 26 27 27 28 28 29 30 30 31 32 33 34 36 37 38
19 19 20 20 21 22 21 21 21 22 22 22 22 22 22 22 22 22 23 23 24 24 25 25 26 26 27 28 29 29 29 30 30 32 32 33 34 35 36 37 39 40 41
19 20 21 21 22 23 22 22 23 23 24 24 24 24 24 24 24 24 25 25 26 26 27 27 28 29 29 30 31 31 31 31 32 34 35 35 37 38 39 40 42 43 44
18 19 21 22 23 23 24 24 24 24 24 25 25 25 25 25 26 26 27 27 28 28 29 30 30 31 32 32 33 33 34 34 35 37 39 38 39 41 41 42 43 44 45
18 20 21 21 23 23 24 25 25 25 25 26 27 27 27 27 27 28 29 29 30 31 31 31 32 33 34 35 36 37 38 38 38 40 42 42 42 43 43 43 45 47 48
20 20 21 22 23 24 24 24 25 26 26 26 27 28 29 29 30 30 31 31 32 33 34 34 34 36 37 37 38 39 41 42 43 42 44 45 45 46 45 45 47 48 48
Wind_Direction
245 249 249 251 256 255 252 247 248 241 225 228 234 241 237 243 246 252 267 287 317 318 323 320 310 304 296 303 311 313 305 283 254 239 235 246 255 262 261 262 261 263 266
244 247 247 246 247 250 248 244 243 238 230 231 234 237 232 235 243 253 271 272 289 305 304 309 305 292 291 294 300 296 299 296 257 241 242 253 264 269 269 270 269 266 268
241 242 246 243 242 242 244 246 243 235 230 230 233 237 231 238 243 255 273 281 282 286 293 297 297 281 276 273 293 297 298 292 267 251 255 262 267 270 274 274 272 268 267
237 239 242 241 240 239 239 242 236 226 223 229 230 228 232 239 248 259 275 283 280 283 281 290 294 287 284 270 275 292 298 285 276 264 264 272 274 271 277 277 273 268 266
232 234 237 236 236 233 231 231 225 219 221 224 227 228 235 248 250 260 275 279 277 269 278 278 302 309 312 287 275 284 301 290 281 275 266 276 275 273 278 278 275 273 269
226 229 230 230 228 224 223 221 216 214 211 213 218 223 227 232 236 245 255 258 260 264 268 278 308 311 308 295 283 278 282 292 279 273 271 275 275 274 276 275 273 271 274
222 224 224 227 223 220 217 213 208 208 208 210 213 214 219 220 218 211 210 179 122 91 288 294 289 282 286 287 277 273 285 298 288 274 275 278 280 278 279 279 275 272 273
221 222 226 225 221 216 211 209 205 205 208 208 210 212 214 215 205 200 192 178 147 102 355 312 282 290 289 280 261 272 289 295 300 293 288 285 281 279 282 282 278 274 273
218 221 222 220 216 210 206 205 204 204 205 207 210 210 209 201 197 191 179 180 183 206 75 49 45 337 289 266 261 275 291 295 295 295 294 298 297 283 281 284 284 279 275
217 218 219 217 215 211 208 207 205 206 207 209 207 206 206 201 197 193 190 190 173 156 299 356 4 353 300 276 289 290 292 290 292 296 297 298 302 294 285 283 285 285 283
218 216 216 217 214 211 211 210 209 210 213 212 209 206 205 204 206 207 209 214 208 213 240 266 284 301 290 280 284 286 288 293 295 296 295 296 299 299 292 287 286 287 286
215 214 216 215 213 210 210 211 212 214 216 215 212 211 210 211 214 219 224 229 235 242 251 260 283 290 290 288 292 296 295 297 298 296 295 295 297 298 295 291 289 289 290
215 213 213 213 211 210 212 214 215 215 218 215 213 215 217 217 220 225 229 235 241 250 252 261 275 281 284 287 290 293 295 298 299 300 299 298 298 298 297 292 288 288 289
214 214 213 212 210 211 214 215 216 217 219 216 216 219 220 220 225 231 236 240 245 249 255 262 269 276 281 283 287 290 291 293 295 296 296 296 296 296 296 295 293 289 287
216 214 212 211 211 214 216 216 217 220 220 220 222 224 225 227 230 236 240 243 246 250 253 259 265 270 274 278 282 287 290 292 293 293 292 292 293 293 293 292 293 291 288
214 211 212 212 213 216 216 217 220 223 223 222 224 227 230 233 235 240 243 247 251 254 258 262 265 268 273 276 280 285 288 290 291 291 292 293 294 294 294 292 292 292 290
211 209 212 212 216 219 220 221 223 226 226 226 228 230 232 236 239 242 245 249 254 258 262 266 269 271 276 280 283 285 288 290 290 291 293 294 295 295 294 292 292 292 292
212 212 213 214 217 221 224 226 227 229 229 229 232 234 235 238 242 245 248 251 256 261 265 269 273 276 279 281 284 286 287 289 290 291 292 292 293 293 293 292 291 291 291
214 214 214 216 220 224 228 229 230 230 231 232 233 235 238 242 246 250 252 255 259 263 267 271 274 278 280 282 283 285 286 288 289 290 291 291 291 291 292 291 290 290 289
216 218 219 219 222 226 228 230 230 232 233 233 235 239 243 245 249 253 256 259 263 266 270 274 277 280 282 283 285 286 286 288 289 290 291 291 291 291 291 290 290 289 289
217 221 221 222 224 227 228 231 233 234 235 236 239 242 245 248 253 257 260 263 266 270 272 276 279 282 283 284 286 286 287 287 289 290 290 291 291 291 291 290 290 289 289
221 222 222 224 226 229 231 234 235 237 239 241 244 247 250 253 257 260 263 266 269 272 274 278 281 283 284 285 285 285 285 286 287 288 289 290 291 291 291 291 290 289 289
228 228 228 230 232 233 234 237 239 242 244 245 247 251 253 255 259 263 266 268 270 273 276 279 282 284 285 285 286 286 287 287 288 289 289 290 290 291 291 292 291 290 290
231 232 234 236 236 237 239 240 242 245 248 249 251 253 255 258 262 265 268 270 270 273 276 279 281 283 284 285 286 287 288 287 288 289 290 290 289 290 290 291 291 291 291
235 236 237 239 240 241 242 244 246 249 250 252 254 255 257 260 264 267 269 271 273 275 277 279 281 283 285 285 286 286 288 287 288 289 289 290 290 291 291 291 290 290 290
240 240 241 243 244 244 245 245 248 249 251 254 256 257 259 262 264 267 269 271 273 275 277 279 281 283 285 286 287 288 288 288 288 289 289 290 291 291 291 291 290 291 290
Height
5891 5892 5892 5893 5893 5893 5894 5894 5894 5895 5895 5896 5896 5896 5896 5896 5897 5897 5897 5896 5896 5896 5896 5895 5895 5895 5895 5895 5895 5895 5894 5894 5894 5894 5895 5895 5895 5895 5895 5895 5895 5895 5895
5889 5890 5891 5891 5892 5893 5893 5893 5894 5894 5895 5895 5896 5895 5896 5896 5896 5896 5896 5896 5896 5896 5895 5895 5894 5894 5894 5894 5894 5894 5894 5893 5893 5893 5894 5894 5894 5894 5894 5894 5894 5894 5894
5887 5888 5889 5890 5891 5892 5892 5892 5893 5893 5894 5895 5895 5895 5895 5896 5895 5895 5895 5895 5895 5895 5895 5894 5894 5894 5894 5893 5893 5893 5893 5893 5892 5893 5893 5893 5893 5893 5893 5893 5892 5892 5892
5884 5886 5887 5888 5889 5890 5891 5891 5892 5893 5893 5894 5895 5895 5895 5895 5895 5895 5895 5895 5894 5894 5894 5894 5893 5893 5893 5893 5892 5892 5892 5892 5892 5892 5892 5892 5892 5892 5891 5891 5891 5890 5890
5882 5884 5885 5886 5887 5888 5889 5890 5891 5892 5893 5893 5894 5894 5895 5895 5895 5895 5895 5894 5894 5894 5893 5893 5893 5892 5892 5892 5892 5892 5891 5891 5891 5891 5891 5890 5890 5890 5890 5889 5889 5889 5889
5880 5881 5883 5884 5885 5887 5888 5889 5890 5891 5892 5893 5893 5894 5894 5894 5894 5894 5894 5893 5893 5893 5892 5892 5892 5892 5891 5891 5891 5891 5891 5890 5890 5889 5889 5889 5889 5888 5888 5888 5887 5887 5887
5877 5879 5881 5882 5884 5885 5886 5887 5889 5890 5891 5892 5893 5893 5894 5894 5894 5894 5893 5893 5892 5892 5892 5892 5891 5891 5891 5891 5890 5890 5890 5889 5889 5888 5888 5888 5887 5887 5886 5886 5886 5885 5885
5874 5876 5878 5880 5882 5883 5885 5886 5888 5889 5890 5891 5892 5892 5893 5894 5893 5893 5893 5892 5892 5891 5891 5891 5890 5890 5890 5890 5889 5889 5889 5888 5888 5887 5887 5886 5886 5885 5885 5884 5884 5883 5883
5871 5873 5875 5877 5879 5881 5883 5884 5886 5888 5889 5890 5891 5892 5892 5892 5892 5893 5892 5892 5892 5891 5891 5890 5890 5889 5889 5889 5889 5888 5888 5887 5887 5886 5886 5885 5885 5884 5883 5883 5882 5881 5881
5868 5870 5872 5875 5877 5879 5881 5883 5884 5886 5887 5888 5889 5890 5891 5891 5892 5892 5892 5892 5891 5891 5891 5890 5890 5889 5889 5888 5888 5887 5887 5886 5886 5885 5885 5884 5883 5882 5882 5881 5880 5879 5878
5865 5867 5870 5872 5874 5877 5879 5881 5882 5884 5885 5887 5888 5889 5889 5890 5891 5891 5891 5891 5891 5891 5890 5890 5889 5889 5888 5887 5887 5886 5886 5885 5885 5884 5883 5883 5882 5881 5880 5879 5878 5877 5876
5862 5864 5867 5869 5872 5874 5876 5878 5880 5881 5883 5884 5886 5887 5888 5889 5889 5890 5890 5890 5890 5890 5889 5889 5888 5888 5887 5887 5886 5885 5885 5884 5883 5883 5882 5881 5880 5879 5877 5876 5876 5875 5873
5859 5861 5864 5866 5869 5871 5873 5875 5877 5879 5880 5882 5884 5885 5886 5887 5888 5888 5888 5888 5888 5888 5888 5887 5887 5887 5886 5886 5885 5884 5883 5883 5882 5881 5880 5878 5877 5876 5875 5874 5872 5871 5870
5855 5857 5860 5863 5866 5868 5870 5872 5874 5876 5878 5879 5881 5882 5883 5885 5885 5886 5886 5886 5886 5886 5886 5886 5885 5885 5884 5883 5883 5882 5881 5880 5879 5878 5877 5876 5874 5873 5872 5870 5869 5868 5866
5851 5854 5857 5860 5863 5865 5867 5869 5871 5873 5875 5876 5878 5880 5881 5882 5882 5883 5883 5884 5884 5884 5884 5883 5883 5882 5882 5881 5880 5879 5878 5877 5876 5875 5874 5872 5871 5869 5868 5866 5865 5863 5862
5848 5850 5853 5856 5859 5862 5864 5866 5868 5870 5871 5873 5875 5876 5877 5878 5879 5880 5880 5881 5881 5881 5881 5881 5880 5880 5879 5878 5877 5876 5875 5874 5872 5871 5870 5868 5867 5865 5863 5862 5860 5858 5856
5844 5847 5850 5853 5856 5858 5861 5863 5865 5867 5868 5870 5871 5872 5874 5875 5875 5876 5877 5877 5877 5877 5877 5877 5877 5876 5875 5874 5873 5872 5871 5869 5868 5867 5865 5863 5862 5860 5858 5856 5854 5852 5851
5841 5844 5847 5849 5852 5855 5857 5859 5861 5863 5865 5866 5867 5869 5870 5871 5872 5872 5873 5873 5873 5873 5873 5873 5873 5872 5871 5870 5869 5867 5866 5865 5863 5861 5860 5858 5856 5854 5852 5850 5848 5846 5844
5838 5841 5843 5846 5848 5851 5852 5855 5857 5859 5861 5862 5863 5865 5866 5867 5867 5868 5869 5869 5869 5869 5869 5869 5868 5867 5866 5865 5864 5862 5860 5859 5857 5855 5853 5851 5849 5847 5845 5843 5841 5838 5836
5835 5838 5840 5842 5845 5847 5849 5851 5852 5854 5856 5858 5859 5860 5861 5862 5863 5863 5864 5864 5864 5864 5864 5863 5863 5861 5860 5859 5857 5856 5854 5852 5850 5848 5846 5844 5842 5840 5837 5835 5833 5830 5827
5832 5834 5836 5838 5840 5842 5844 5846 5848 5850 5851 5853 5854 5855 5857 5857 5858 5858 5858 5858 5858 5858 5858 5857 5856 5855 5853 5852 5850 5849 5847 5845 5843 5841 5839 5836 5834 5832 5829 5826 5823 5820 5817
5828 5830 5832 5834 5836 5838 5840 5842 5843 5845 5846 5848 5849 5850 5851 5852 5852 5853 5853 5852 5852 5852 5851 5850 5849 5848 5846 5844 5843 5841 5839 5837 5835 5833 5830 5828 5825 5822 5819 5816 5812 5809 5806
5825 5827 5828 5830 5832 5833 5835 5837 5838 5840 5841 5842 5844 5845 5845 5846 5846 5846 5846 5846 5845 5845 5844 5843 5841 5840 5838 5836 5834 5832 5830 5828 5826 5823 5821 5819 5815 5812 5809 5805 5801 5797 5794
5821 5823 5824 5825 5827 5828 5830 5831 5833 5834 5835 5837 5838 5838 5839 5839 5840 5840 5839 5839 5838 5837 5836 5835 5833 5831 5829 5827 5825 5823 5821 5819 5817 5813 5809 5808 5805 5801 5798 5794 5789 5785 5782
5817 5818 5819 5820 5821 5823 5824 5825 5827 5828 5829 5830 5831 5832 5832 5832 5832 5832 5831 5831 5830 5829 5827 5826 5824 5822 5820 5817 5815 5813 5810 5808 5806 5803 5798 5795 5792 5789 5786 5782 5777 5772 5768
5812 5813 5814 5815 5816 5817 5818 5819 5820 5821 5822 5823 5824 5824 5825 5825 5824 5824 5823 5822 5821 5820 5818 5817 5815 5812 5810 5808 5805 5802 5799 5796 5794 5792 5787 5782 5779 5775 5773 5770 5764 5759 5754